Location: Unspecified
(37.3333°N, 0.0000°E)
Time: 00:29:26
(UTC+00:00)

Tiangong 2 - Pass Details

Date: 02 June 2019
Orbit: 376 x 388 km, 42.8° (Epoch: 15 June)

Event Time Altitude Azimuth Distance (km) Brightness Sun altitude
Rises 20:48:23 0° 276° (W) 2,238 5.8 -15.6°
Reaches altitude 10° 20:51:36 10° 240° (WSW) 1,380 4.0 -16.0°
Maximum altitude 20:52:39 11° 220° (SW) 1,301 3.7 -16.2°
Enters shadow 20:53:10 11° 210° (SSW) 1,319 3.6 -16.2°
